Location: NJAA Observatory
(40.6819°N, 74.8979°W)
Time: 09:12:59
(UTC-04:00)

Cosmos 1328 Rocket - Visible Passes

Search period start: 24 May 2015 00:00
Search period end: 03 June 2015 00:00
Orbit: 603 x 628 km, 82.5° (Epoch: 23 May)

Date Brightness Start Highest point End Pass type
(mag) Time Alt. Az. Time Alt. Az. Time Alt. Az.
24 May 5.2 01:08:31 10° NNW 01:11:01 26° NW 01:11:01 26° NW visible
24 May 4.8 23:46:52 10° N 23:50:03 32° NE 23:50:03 32° NE visible
25 May 5.8 01:25:26 10° NW 01:27:08 16° WNW 01:27:08 16° WNW visible
26 May 4.2 00:02:47 10° N 00:06:11 50° NNE 00:06:11 50° NNE visible
26 May 5.9 22:44:00 10° NE 22:44:53 11° ENE 22:45:14 11° ENE visible
27 May 4.3 00:18:59 10° NNW 00:22:18 48° NW 00:22:18 48° NW visible
27 May 5.3 22:58:21 10° NNE 23:01:22 19° ENE 23:01:22 19° ENE visible
28 May 5.0 00:35:26 10° NNW 00:38:27 30° WNW 00:38:27 30° WNW visible
28 May 4.6 23:13:52 10° N 23:17:31 33° ENE 23:17:31 33° ENE visible
29 May 5.6 00:52:17 10° NW 00:54:36 18° WNW 00:54:36 18° WNW visible
29 May 3.8 23:29:46 10° N 23:33:41 59° NE 23:33:41 59° NE visible
30 May 3.8 23:45:55 10° NNW 23:49:52 65° WNW 23:49:52 65° WNW visible
31 May 5.3 22:25:25 10° NNE 22:28:19 18° ENE 22:28:58 18° E visible
01 Jun 4.6 00:02:20 10° NNW 00:06:03 36° W 00:06:03 36° W visible
01 Jun 4.5 22:40:52 10° NNE 22:44:43 31° ENE 22:45:10 31° E visible
02 Jun 5.5 00:19:08 10° NW 00:22:15 20° W 00:22:15 20° W visible
02 Jun 3.6 22:56:44 10° N 23:01:00 58° E 23:01:23 56° ESE visible
